カタログに戻る

NATO 3A

運用中軍事GEO
NORAD 8808·PAYLOAD· XX

打ち上げ Apr 22, 1976 から Cape Canaveral Space Force Station

Loading…

TLE

最新Source: Space-Track

元期: Sep 14, 2026, 11:50 UTC

1 08808U 76035A   26257.49349523 -.00000288  00000-0  00000-0 0  9995
2 08808   4.7837 298.1941 0026637 324.3880 216.4791  0.99845467748169

AllMySatでNATO 3Aをリアルタイム追跡

Download on the App Store